This is the latest recevied weather packets stored in our database for station/object N4TLC. If no packets are shown the sender has not sent any weather packets the latest 10 day(s).
| Time | Temp. | Humidity | Pressure | Rain* | Wind** | Luminosity | Snow |
|---|---|---|---|---|---|---|---|
| 1777843841 | 20° C | 22% | 1018.4 hPa | 0 mm | - | 473 W/m² | - |
| 1777843539 | 20° C | 23% | 1018.4 hPa | 0 mm | - | 493 W/m² | - |
| 1777843236 | 19.44° C | 24% | 1018.5 hPa | 0 mm | - | 514 W/m² | - |
| 1777842933 | 19.44° C | 24% | 1018.5 hPa | 0 mm | - | 532 W/m² | - |
| 1777842628 | 19.44° C | 24% | 1018.5 hPa | 0 mm | - | 553 W/m² | - |
| 1777842326 | 19.44° C | 24% | 1018.4 hPa | 0 mm | - | 574 W/m² | - |
| 1777842021 | 18.89° C | 24% | 1018.4 hPa | 0 mm | - | 598 W/m² | - |
| 1777841718 | 18.89° C | 24% | 1018.6 hPa | 0 mm | - | 618 W/m² | - |
| 1777841414 | 18.89° C | 24% | 1018.5 hPa | 0 mm | - | 636 W/m² | - |
| 1777841111 | 18.89° C | 24% | 1018.5 hPa | 0 mm | - | 655 W/m² | - |
| 1777840808 | 18.89° C | 24% | 1018.5 hPa | 0 mm | - | 674 W/m² | - |
| 1777840506 | 18.89° C | 23% | 1018.6 hPa | 0 mm | - | 694 W/m² | - |
| 1777840202 | 18.89° C | 23% | 1018.6 hPa | 0 mm | - | 713 W/m² | - |
| 1777839900 | 18.89° C | 25% | 1018.7 hPa | 0 mm | - | 731 W/m² | - |
| 1777839598 | 18.33° C | 24% | 1018.9 hPa | 0 mm | - | 751 W/m² | - |
| 1777839296 | 18.89° C | 23% | 1019 hPa | 0 mm | - | 766 W/m² | - |
| 1777838993 | 18.89° C | 22% | 1019.2 hPa | 0 mm | - | 782 W/m² | - |
| 1777838689 | 18.89° C | 24% | 1019.1 hPa | 0 mm | - | 803 W/m² | - |
| 1777838386 | 18.89° C | 23% | 1019.1 hPa | 0 mm | - | 819 W/m² | - |
| 1777838083 | 18.33° C | 24% | 1019.2 hPa | 0 mm | - | 834 W/m² | - |
| 1777837780 | 17.78° C | 25% | 1019.4 hPa | 0 mm | - | 848 W/m² | - |
| 1777837477 | 18.89° C | 24% | 1019.4 hPa | 0 mm | - | 861 W/m² | - |
| 1777837172 | 18.33° C | 25% | 1019.2 hPa | 0 mm | - | 874 W/m² | - |
| 1777836868 | 17.78° C | 25% | 1019.4 hPa | 0 mm | - | 889 W/m² | - |
| 1777836563 | 17.78° C | 25% | 1019.5 hPa | 0 mm | - | 901 W/m² | - |
* Rain latest hour (hover to see other rain measurements)
** Current wind speed in m/s (hover to see current wind gust speed)